Weather History for Cazaux, France

Change the Weather History Date:

Wednesday, February 20, 2013

  Actual Average Record
Temperature  
Mean Temperature 47 °F -  
Max Temperature 62 °F 55 °F 62 °F (2013)
Min Temperature 32 °F 38 °F 24 °F (2012)
Degree Days  
Heating Degree Days 18    
Moisture  
Dew Point 38 °F    
Average Humidity 76    
Maximum Humidity 100    
Minimum Humidity 39    
Precipitation  
Precipitation 0.00 in - - ()
Sea Level Pressure  
Sea Level Pressure 29.91 in    
Wind  
Wind Speed 3 mph ()    
Max Wind Speed 8 mph    
Max Gust Speed -    
Visibility 5.5 miles    
Events Fog    
Averages and records for this station are not official NWS values.
T = Trace of Precipitation, MM = Missing Value Source: Averaged Metar Reports

Daily Weather History Graph

Daily Weather History Graph

Search for Another Location

Airport:

Trip Planner

Search our weather history database for the weather conditions in past years. The results will help you decide how hot, cold, wet, or windy it might be!

Date:

Astronomy

Feb. 20, 2013 Rise Set
Actual Time 7:56 AM CET 6:40 PM CET
Civil Twilight 7:27 AM CET 7:09 PM CET
Nautical Twilight 6:53 AM CET 7:43 PM CET
Astronomical Twilight 6:19 AM CET 8:17 PM CET
Moon 1:41 PM CET (2/20) 4:12 AM CET (2/20)
Length of Visible Light 11h 42m
Length of Day
10h 43m
Waxing Gibbous, 74% of the Moon is Illuminated
Feb 20
Waxing Gibbous
Feb 25
Full
Mar 4
Last Quarter
Mar 11
New
Mar 19
First Quarter

Hourly Weather History & Observations

Time (CET) Temp. Windchill Dew Point Humidity Pressure Visibility Wind Dir Wind Speed Gust Speed Precip Events Conditions
12:00 AM 42.8 °F 41.1 °F 39.2 °F 87% 29.92 in 6.2 mi NE 3.5 mph - N/A   Unknown
12:30 AM 41.0 °F - 37.4 °F 87% 29.92 in 6.2 mi Variable 2.3 mph - N/A   Unknown
1:30 AM 42.8 °F 39.3 °F 39.2 °F 87% 29.92 in 6.2 mi ENE 5.8 mph - N/A   Unknown
2:00 AM 42.8 °F 41.1 °F 39.2 °F 87% 29.92 in 6.2 mi ENE 3.5 mph - N/A   Unknown
2:30 AM 41.0 °F 38.0 °F 39.2 °F 93% 29.92 in 6.2 mi ENE 4.6 mph - N/A   Unknown
3:00 AM 37.4 °F - 33.8 °F 87% 29.92 in 6.2 mi Calm Calm - N/A   Unknown
3:30 AM 39.2 °F 37.0 °F 37.4 °F 93% 29.92 in 6.2 mi ENE 3.5 mph - N/A   Unknown
4:00 AM 39.2 °F - 35.6 °F 87% 29.92 in 6.2 mi ENE 2.3 mph - N/A   Unknown
4:30 AM 35.6 °F - 33.8 °F 93% 29.92 in 5.6 mi NE 1.2 mph - N/A   Unknown
5:00 AM 33.8 °F - 32.0 °F 93% 29.92 in 4.3 mi Calm Calm - N/A   Unknown
5:30 AM 33.8 °F - 32.0 °F 93% 29.92 in 0.7 mi Calm Calm - N/A Fog Patches of Fog
6:00 AM 33.8 °F - 32.0 °F 93% 29.92 in - NE 1.2 mph - N/A   Mist
6:30 AM 33.8 °F - 32.0 °F 93% 29.92 in 3.1 mi NE 1.2 mph - N/A   Mist
7:00 AM 33.8 °F - 32.0 °F 93% 29.92 in 0.2 mi NNE 2.3 mph - N/A Fog Fog
7:30 AM 32.0 °F 28.7 °F 30.2 °F 93% 29.92 in 0.2 mi NNE 3.5 mph - N/A Fog Fog
8:00 AM 32.0 °F - 32.0 °F 100% 29.92 in 3.1 mi North 2.3 mph - N/A   Mist
8:30 AM 35.6 °F - 33.8 °F 93% 29.95 in 3.1 mi Variable 2.3 mph - N/A   Mist
9:00 AM 37.4 °F - 35.6 °F 93% 29.95 in 3.7 mi Variable 2.3 mph - N/A   Unknown
9:30 AM 39.2 °F 37.0 °F 37.4 °F 93% 29.95 in 5.0 mi ENE 3.5 mph - N/A   Unknown
10:00 AM 42.8 °F 39.3 °F 41.0 °F 93% 29.95 in 6.2 mi East 5.8 mph - N/A   Unknown
10:30 AM 46.4 °F 45.2 °F 42.8 °F 87% 29.95 in 6.2 mi Variable 3.5 mph - N/A   Unknown
11:00 AM 50.0 °F - 42.8 °F 76% 29.95 in 6.2 mi ESE 3.5 mph - N/A   Unknown
11:30 AM 53.6 °F - 42.8 °F 67% 29.95 in 6.2 mi ESE 5.8 mph - N/A   Unknown
12:00 PM 55.4 °F - 39.2 °F 54% 29.95 in 6.2 mi East 8.1 mph - N/A   Unknown
12:30 PM 57.2 °F - 39.2 °F 51% 29.95 in 6.2 mi SE 6.9 mph - N/A   Unknown
1:00 PM 59.0 °F - 37.4 °F 45% 29.92 in 6.2 mi ESE 5.8 mph - N/A   Unknown
1:30 PM 59.0 °F - 37.4 °F 45% 29.92 in 6.2 mi ESE 5.8 mph - N/A   Unknown
2:00 PM 60.8 °F - 37.4 °F 42% 29.92 in 6.2 mi East 4.6 mph - N/A   Unknown
2:30 PM 60.8 °F - 35.6 °F 39% 29.89 in 6.2 mi East 3.5 mph - N/A   Unknown
3:00 PM 60.8 °F - 35.6 °F 39% 29.89 in 6.2 mi East 3.5 mph - N/A   Unknown
3:30 PM 62.6 °F - 37.4 °F 39% 29.89 in 6.2 mi Variable 3.5 mph - N/A   Unknown
4:00 PM 60.8 °F - 41.0 °F 48% 29.89 in 6.2 mi West 5.8 mph - N/A   Unknown
4:30 PM 59.0 °F - 39.2 °F 48% 29.89 in 6.2 mi NW 8.1 mph - N/A   Unknown
5:00 PM 59.0 °F - 42.8 °F 55% 29.89 in 6.2 mi NW 8.1 mph - N/A   Unknown
5:30 PM 57.2 °F - 42.8 °F 59% 29.89 in 6.2 mi NNW 8.1 mph - N/A   Unknown
6:00 PM 55.4 °F - 42.8 °F 63% 29.89 in 6.2 mi NNW 5.8 mph - N/A   Unknown
6:37 PM - - - N/A% 0.00 in - North - - N/A   Unknown
7:00 PM 50.0 °F - 41.0 °F 71% 29.89 in 6.2 mi NNW 5.8 mph - N/A   Unknown
7:30 PM 48.2 °F - 41.0 °F 76% 29.89 in 6.2 mi NNW 4.6 mph - N/A   Unknown
8:00 PM 46.4 °F 43.5 °F 41.0 °F 81% 29.89 in 6.2 mi North 5.8 mph - N/A   Unknown
8:30 PM 44.6 °F 41.4 °F 39.2 °F 81% 29.89 in 6.2 mi North 5.8 mph - N/A   Unknown
9:00 PM 44.6 °F 40.7 °F 41.0 °F 87% 29.89 in 6.2 mi North 6.9 mph - N/A   Unknown
9:30 PM 44.6 °F 41.4 °F 41.0 °F 87% 29.89 in 6.2 mi North 5.8 mph - N/A   Unknown
10:00 PM 44.6 °F 42.2 °F 39.2 °F 81% 29.89 in 6.2 mi North 4.6 mph - N/A   Unknown
10:30 PM 42.8 °F 40.1 °F 39.2 °F 87% 29.89 in 6.2 mi North 4.6 mph - N/A   Unknown
11:00 PM 42.8 °F 41.1 °F 37.4 °F 81% 29.89 in 6.2 mi North 3.5 mph - N/A   Unknown
11:30 PM 41.0 °F 39.0 °F 37.4 °F 87% 29.89 in 6.2 mi North 3.5 mph - N/A   Unknown